Year,Month,Day,Hour,Minute,Value (Times are PST for temperature in C)
2010,06,16,00,00,7.80
2010,06,16,00,01,7.80
2010,06,16,00,02,7.80
2010,06,16,00,03,7.80
2010,06,16,00,04,7.80
2010,06,16,00,05,7.80
2010,06,16,00,06,7.80
2010,06,16,00,07,7.70
2010,06,16,00,08,7.70
2010,06,16,00,09,7.70
2010,06,16,00,10,7.70
2010,06,16,00,11,7.70
2010,06,16,00,12,7.70
2010,06,16,00,13,7.70
2010,06,16,00,14,7.70
2010,06,16,00,15,7.70
2010,06,16,00,16,7.70
2010,06,16,00,17,7.70
2010,06,16,00,18,7.70
2010,06,16,00,19,7.70
2010,06,16,00,20,7.70
2010,06,16,00,21,7.70
2010,06,16,00,22,7.70
2010,06,16,00,23,7.70
2010,06,16,00,24,7.70
2010,06,16,00,25,7.70
2010,06,16,00,26,7.70
2010,06,16,00,27,7.70
2010,06,16,00,28,7.70
2010,06,16,00,29,7.60
2010,06,16,00,30,7.60
2010,06,16,00,31,7.60
2010,06,16,00,32,7.60
2010,06,16,00,33,7.70
2010,06,16,00,34,7.70
2010,06,16,00,35,7.70
2010,06,16,00,36,7.70
2010,06,16,00,37,7.70
2010,06,16,00,38,7.70
2010,06,16,00,39,7.70
2010,06,16,00,40,7.70
2010,06,16,00,41,7.70
2010,06,16,00,42,7.70
2010,06,16,00,43,7.70
2010,06,16,00,44,7.70
2010,06,16,00,45,7.70
2010,06,16,00,46,7.70
2010,06,16,00,47,7.60
2010,06,16,00,48,7.60
2010,06,16,00,49,7.60
2010,06,16,00,50,7.60
2010,06,16,00,51,7.60
2010,06,16,00,52,7.50
2010,06,16,00,53,7.50
2010,06,16,00,54,7.60
2010,06,16,00,55,7.60
2010,06,16,00,56,7.60
2010,06,16,00,57,7.60
2010,06,16,00,58,7.60
2010,06,16,00,59,7.60
2010,06,16,01,00,7.60
2010,06,16,01,01,7.60
2010,06,16,01,02,7.60
2010,06,16,01,03,7.60
2010,06,16,01,04,7.60
2010,06,16,01,05,7.60
2010,06,16,01,06,7.60
2010,06,16,01,07,7.60
2010,06,16,01,08,7.50
2010,06,16,01,09,7.50
2010,06,16,01,10,7.50
2010,06,16,01,11,7.50
2010,06,16,01,12,7.40
2010,06,16,01,13,7.40
2010,06,16,01,14,7.40
2010,06,16,01,15,7.40
2010,06,16,01,16,7.50
2010,06,16,01,17,7.50
2010,06,16,01,18,7.50
2010,06,16,01,19,7.50
2010,06,16,01,20,7.50
2010,06,16,01,21,7.50
2010,06,16,01,22,7.40
2010,06,16,01,23,7.40
2010,06,16,01,24,7.40
2010,06,16,01,25,7.40
2010,06,16,01,26,7.40
2010,06,16,01,27,7.40
2010,06,16,01,28,7.40
2010,06,16,01,29,7.30
2010,06,16,01,30,7.30
2010,06,16,01,31,7.30
2010,06,16,01,32,7.30
2010,06,16,01,33,7.30
2010,06,16,01,34,7.30
2010,06,16,01,35,7.30
2010,06,16,01,36,7.30
2010,06,16,01,37,7.30
2010,06,16,01,38,7.30
2010,06,16,01,39,7.30
2010,06,16,01,40,7.30
2010,06,16,01,41,7.30
2010,06,16,01,42,7.20
2010,06,16,01,43,7.20
2010,06,16,01,44,7.20
2010,06,16,01,45,7.20
2010,06,16,01,46,7.20
2010,06,16,01,47,7.20
2010,06,16,01,48,7.20
2010,06,16,01,49,7.20
2010,06,16,01,50,7.20
2010,06,16,01,51,7.20
2010,06,16,01,52,7.20
2010,06,16,01,53,7.20
2010,06,16,01,54,7.20
2010,06,16,01,55,7.20
2010,06,16,01,56,7.20
2010,06,16,01,57,7.20
2010,06,16,01,58,7.20
2010,06,16,01,59,7.20
2010,06,16,02,00,7.20
2010,06,16,02,01,7.20
2010,06,16,02,02,7.20
2010,06,16,02,03,7.20
2010,06,16,02,04,7.20
2010,06,16,02,05,7.20
2010,06,16,02,06,7.20
2010,06,16,02,07,7.20
2010,06,16,02,08,7.20
2010,06,16,02,09,7.20
2010,06,16,02,10,7.20
2010,06,16,02,11,7.20
2010,06,16,02,12,7.20
2010,06,16,02,13,7.20
2010,06,16,02,14,7.20
2010,06,16,02,15,7.20
2010,06,16,02,16,7.20
2010,06,16,02,17,7.20
2010,06,16,02,18,7.20
2010,06,16,02,19,7.20
2010,06,16,02,20,7.20
2010,06,16,02,21,7.20
2010,06,16,02,22,7.20
2010,06,16,02,23,7.20
2010,06,16,02,24,7.20
2010,06,16,02,25,7.20
2010,06,16,02,26,7.30
2010,06,16,02,27,7.30
2010,06,16,02,28,7.30
2010,06,16,02,29,7.30
2010,06,16,02,30,7.30
2010,06,16,02,31,7.30
2010,06,16,02,32,7.30
2010,06,16,02,33,7.30
2010,06,16,02,34,7.30
2010,06,16,02,35,7.30
2010,06,16,02,36,7.30
2010,06,16,02,37,7.30
2010,06,16,02,38,7.30
2010,06,16,02,39,7.30
2010,06,16,02,40,7.30
2010,06,16,02,41,7.30
2010,06,16,02,42,7.30
2010,06,16,02,43,7.40
2010,06,16,02,44,7.40
2010,06,16,02,45,7.40
2010,06,16,02,46,7.40
2010,06,16,02,47,7.40
2010,06,16,02,48,7.40
2010,06,16,02,49,7.40
2010,06,16,02,50,7.40
2010,06,16,02,51,7.40
2010,06,16,02,52,7.40
2010,06,16,02,53,7.40
2010,06,16,02,54,7.30
2010,06,16,02,55,7.30
2010,06,16,02,56,7.30
2010,06,16,02,57,7.30
2010,06,16,02,58,7.30
2010,06,16,02,59,7.30
2010,06,16,03,00,7.30
2010,06,16,03,01,7.30
2010,06,16,03,02,7.30
2010,06,16,03,03,7.30
2010,06,16,03,04,7.30
2010,06,16,03,05,7.30
2010,06,16,03,06,7.30
2010,06,16,03,07,7.40
2010,06,16,03,08,7.40
2010,06,16,03,09,7.40
2010,06,16,03,10,7.50
2010,06,16,03,11,7.50
2010,06,16,03,12,7.60
2010,06,16,03,13,7.70
2010,06,16,03,14,7.70
2010,06,16,03,15,7.80
2010,06,16,03,16,7.90
2010,06,16,03,17,7.90
2010,06,16,03,18,8.10
2010,06,16,03,19,8.20
2010,06,16,03,20,8.20
2010,06,16,03,21,8.20
2010,06,16,03,22,8.20
2010,06,16,03,23,8.20
2010,06,16,03,24,8.20
2010,06,16,03,25,8.20
2010,06,16,03,26,8.20
2010,06,16,03,27,8.20
2010,06,16,03,28,8.40
2010,06,16,03,29,8.50
2010,06,16,03,30,8.60
2010,06,16,03,31,8.60
2010,06,16,03,32,8.60
2010,06,16,03,33,8.60
2010,06,16,03,34,8.70
2010,06,16,03,35,8.70
2010,06,16,03,36,8.60
2010,06,16,03,37,8.60
2010,06,16,03,38,8.60
2010,06,16,03,39,8.50
2010,06,16,03,40,8.40
2010,06,16,03,41,8.40
2010,06,16,03,42,8.30
2010,06,16,03,43,8.30
2010,06,16,03,44,8.20
2010,06,16,03,45,8.20
2010,06,16,03,46,8.20
2010,06,16,03,47,8.10
2010,06,16,03,48,8.10
2010,06,16,03,49,8.00
2010,06,16,03,50,8.00
2010,06,16,03,51,7.90
2010,06,16,03,52,7.90
2010,06,16,03,53,7.90
2010,06,16,03,54,7.90
2010,06,16,03,55,7.80
2010,06,16,03,56,7.80
2010,06,16,03,57,7.80
2010,06,16,03,58,7.80
2010,06,16,03,59,7.80
2010,06,16,04,00,7.80
2010,06,16,04,01,7.80
2010,06,16,04,02,7.80
2010,06,16,04,03,7.80
2010,06,16,04,04,7.80
2010,06,16,04,05,7.80
2010,06,16,04,06,7.80
2010,06,16,04,07,7.80
2010,06,16,04,08,7.80
2010,06,16,04,09,7.70
2010,06,16,04,10,7.70
2010,06,16,04,11,7.70
2010,06,16,04,12,7.80
2010,06,16,04,13,7.80
2010,06,16,04,14,7.80
2010,06,16,04,15,7.90
2010,06,16,04,16,8.00
2010,06,16,04,17,8.00
2010,06,16,04,18,8.10
2010,06,16,04,19,8.10
2010,06,16,04,20,8.20
2010,06,16,04,21,8.40
2010,06,16,04,22,8.60
2010,06,16,04,23,8.70
2010,06,16,04,24,8.80
2010,06,16,04,25,8.80
2010,06,16,04,26,8.80
2010,06,16,04,27,8.90
2010,06,16,04,28,9.00
2010,06,16,04,29,9.00
2010,06,16,04,30,9.10
2010,06,16,04,31,9.20
2010,06,16,04,32,9.20
2010,06,16,04,33,9.20
2010,06,16,04,34,9.30
2010,06,16,04,35,9.40
2010,06,16,04,36,9.50
2010,06,16,04,37,9.60
2010,06,16,04,38,9.70
2010,06,16,04,39,9.80
2010,06,16,04,40,9.90
2010,06,16,04,41,9.90
2010,06,16,04,42,9.90
2010,06,16,04,43,10.00
2010,06,16,04,44,10.00
2010,06,16,04,45,10.00
2010,06,16,04,46,10.00
2010,06,16,04,47,10.10
2010,06,16,04,48,10.20
2010,06,16,04,49,10.20
2010,06,16,04,50,10.20
2010,06,16,04,51,10.20
2010,06,16,04,52,10.20
2010,06,16,04,53,10.20
2010,06,16,04,54,10.20
2010,06,16,04,55,10.20
2010,06,16,04,56,10.20
2010,06,16,04,57,10.10
2010,06,16,04,58,10.10
2010,06,16,04,59,10.10
2010,06,16,05,00,10.10
2010,06,16,05,01,10.00
2010,06,16,05,02,9.90
2010,06,16,05,03,9.90
2010,06,16,05,04,9.90
2010,06,16,05,05,9.80
2010,06,16,05,06,9.80
2010,06,16,05,07,9.70
2010,06,16,05,08,9.70
2010,06,16,05,09,9.70
2010,06,16,05,10,9.60
2010,06,16,05,11,9.60
2010,06,16,05,12,9.60
2010,06,16,05,13,9.50
2010,06,16,05,14,9.40
2010,06,16,05,15,9.40
2010,06,16,05,16,9.30
2010,06,16,05,17,9.30
2010,06,16,05,18,9.20
2010,06,16,05,19,9.10
2010,06,16,05,20,9.10
2010,06,16,05,21,9.00
2010,06,16,05,22,9.00
2010,06,16,05,23,8.90
2010,06,16,05,24,8.90
2010,06,16,05,25,8.90
2010,06,16,05,26,8.90
2010,06,16,05,27,8.90
2010,06,16,05,28,8.90
2010,06,16,05,29,8.80
2010,06,16,05,30,8.80
2010,06,16,05,31,8.80
2010,06,16,05,32,8.80
2010,06,16,05,33,8.80
2010,06,16,05,34,8.80
2010,06,16,05,35,8.80
2010,06,16,05,36,8.80
2010,06,16,05,37,8.80
2010,06,16,05,38,8.80
2010,06,16,05,39,8.80
2010,06,16,05,40,8.80
2010,06,16,05,41,8.80
2010,06,16,05,42,8.80
2010,06,16,05,43,8.80
2010,06,16,05,44,8.80
2010,06,16,05,45,8.80
2010,06,16,05,46,8.80
2010,06,16,05,47,8.80
2010,06,16,05,48,8.80
2010,06,16,05,49,8.80
2010,06,16,05,50,8.80
2010,06,16,05,51,8.80
2010,06,16,05,52,8.80
2010,06,16,05,53,8.80
2010,06,16,05,54,8.80
2010,06,16,05,55,8.80
2010,06,16,05,56,8.80
2010,06,16,05,57,8.80
2010,06,16,05,58,8.80
2010,06,16,05,59,8.80
2010,06,16,06,00,8.80
2010,06,16,06,01,8.80
2010,06,16,06,02,8.80
2010,06,16,06,03,8.80
2010,06,16,06,04,8.80
2010,06,16,06,05,8.80
2010,06,16,06,06,8.90
2010,06,16,06,07,8.90
2010,06,16,06,08,8.90
2010,06,16,06,09,8.90
2010,06,16,06,10,8.90
2010,06,16,06,11,8.90
2010,06,16,06,12,8.90
2010,06,16,06,13,8.90
2010,06,16,06,14,8.90
2010,06,16,06,15,8.90
2010,06,16,06,16,8.90
2010,06,16,06,17,8.90
2010,06,16,06,18,8.90
2010,06,16,06,19,8.90
2010,06,16,06,20,9.00
2010,06,16,06,21,9.00
2010,06,16,06,22,9.00
2010,06,16,06,23,9.00
2010,06,16,06,24,9.00
2010,06,16,06,25,9.00
2010,06,16,06,26,9.10
2010,06,16,06,27,9.10
2010,06,16,06,28,9.10
2010,06,16,06,29,9.10
2010,06,16,06,30,9.10
2010,06,16,06,31,9.10
2010,06,16,06,32,9.20
2010,06,16,06,33,9.20
2010,06,16,06,34,9.20
2010,06,16,06,35,9.30
2010,06,16,06,36,9.30
2010,06,16,06,37,9.30
2010,06,16,06,38,9.30
2010,06,16,06,39,9.30
2010,06,16,06,40,9.30
2010,06,16,06,41,9.30
2010,06,16,06,42,9.40
2010,06,16,06,43,9.40
2010,06,16,06,44,9.50
2010,06,16,06,45,9.50
2010,06,16,06,46,9.50
2010,06,16,06,47,9.60
2010,06,16,06,48,9.60
2010,06,16,06,49,9.60
2010,06,16,06,50,9.60
2010,06,16,06,51,9.60
2010,06,16,06,52,9.60
2010,06,16,06,53,9.60
2010,06,16,06,54,9.60
2010,06,16,06,55,9.70
2010,06,16,06,56,9.70
2010,06,16,06,57,9.70
2010,06,16,06,58,9.70
2010,06,16,06,59,9.80
2010,06,16,07,00,9.80
2010,06,16,07,01,9.80
2010,06,16,07,02,9.80
2010,06,16,07,03,9.80
2010,06,16,07,04,9.90
2010,06,16,07,05,9.90
2010,06,16,07,06,9.90
2010,06,16,07,07,9.90
2010,06,16,07,08,9.90
2010,06,16,07,09,10.00
2010,06,16,07,10,10.00
2010,06,16,07,11,10.10
2010,06,16,07,12,10.10
2010,06,16,07,13,10.10
2010,06,16,07,14,10.10
2010,06,16,07,15,10.10
2010,06,16,07,16,10.10
2010,06,16,07,17,10.20
2010,06,16,07,18,10.20
2010,06,16,07,19,10.20
2010,06,16,07,20,10.20
2010,06,16,07,21,10.20
2010,06,16,07,22,10.20
2010,06,16,07,23,10.30
2010,06,16,07,24,10.30
2010,06,16,07,25,10.30
2010,06,16,07,26,10.40
2010,06,16,07,27,10.40
2010,06,16,07,28,10.40
2010,06,16,07,29,10.50
2010,06,16,07,30,10.50
2010,06,16,07,31,10.50
2010,06,16,07,32,10.60
2010,06,16,07,33,10.60
2010,06,16,07,34,10.60
2010,06,16,07,35,10.70
2010,06,16,07,36,10.70
2010,06,16,07,37,10.70
2010,06,16,07,38,10.70
2010,06,16,07,39,10.80
2010,06,16,07,40,10.80
2010,06,16,07,41,10.90
2010,06,16,07,42,10.90
2010,06,16,07,43,10.90
2010,06,16,07,44,11.00
2010,06,16,07,45,11.00
2010,06,16,07,46,11.10
2010,06,16,07,47,11.10
2010,06,16,07,48,11.20
2010,06,16,07,49,11.20
2010,06,16,07,50,11.30
2010,06,16,07,51,11.30
2010,06,16,07,52,11.30
2010,06,16,07,53,11.30
2010,06,16,07,54,11.30
2010,06,16,07,55,11.40
2010,06,16,07,56,11.40
2010,06,16,07,57,11.40
2010,06,16,07,58,11.40
2010,06,16,07,59,11.50
2010,06,16,08,00,11.50
2010,06,16,08,01,11.50
2010,06,16,08,02,11.50
2010,06,16,08,03,11.40
2010,06,16,08,04,11.30
2010,06,16,08,05,11.30
2010,06,16,08,06,11.20
2010,06,16,08,07,11.20
2010,06,16,08,08,11.10
2010,06,16,08,09,11.10
2010,06,16,08,10,11.00
2010,06,16,08,11,11.00
2010,06,16,08,12,11.00
2010,06,16,08,13,11.00
2010,06,16,08,14,11.00
2010,06,16,08,15,11.00
2010,06,16,08,16,11.00
2010,06,16,08,17,11.00
2010,06,16,08,18,10.90
2010,06,16,08,19,10.90
2010,06,16,08,20,10.90
2010,06,16,08,21,10.90
2010,06,16,08,22,11.00
2010,06,16,08,23,11.00
2010,06,16,08,24,11.00
2010,06,16,08,25,11.10
2010,06,16,08,26,11.10
2010,06,16,08,27,11.10
2010,06,16,08,28,11.10
2010,06,16,08,29,11.20
2010,06,16,08,30,11.20
2010,06,16,08,31,11.20
2010,06,16,08,32,11.20
2010,06,16,08,33,11.20
2010,06,16,08,34,11.20
2010,06,16,08,35,11.20
2010,06,16,08,36,11.30
2010,06,16,08,37,11.30
2010,06,16,08,38,11.30
2010,06,16,08,39,11.30
2010,06,16,08,40,11.30
2010,06,16,08,41,11.30
2010,06,16,08,42,11.30
2010,06,16,08,43,11.30
2010,06,16,08,44,11.30
2010,06,16,08,45,11.30
2010,06,16,08,46,11.30
2010,06,16,08,47,11.40
2010,06,16,08,48,11.40
2010,06,16,08,49,11.40
2010,06,16,08,50,11.40
2010,06,16,08,51,11.30
2010,06,16,08,52,11.30
2010,06,16,08,53,11.30
2010,06,16,08,54,11.30
2010,06,16,08,55,11.30
2010,06,16,08,56,11.20
2010,06,16,08,57,11.20
2010,06,16,08,58,11.30
2010,06,16,08,59,11.30
2010,06,16,09,00,11.30
2010,06,16,09,01,11.30
2010,06,16,09,02,11.30
2010,06,16,09,03,11.30
2010,06,16,09,04,11.30
2010,06,16,09,05,11.40
2010,06,16,09,06,11.40
2010,06,16,09,07,11.40
2010,06,16,09,08,11.40
2010,06,16,09,09,11.50
2010,06,16,09,10,11.50
2010,06,16,09,11,11.60
2010,06,16,09,12,11.60
2010,06,16,09,13,11.70
2010,06,16,09,14,11.70
2010,06,16,09,15,11.80
2010,06,16,09,16,11.80
2010,06,16,09,17,11.80
2010,06,16,09,18,11.90
2010,06,16,09,19,11.90
2010,06,16,09,20,11.90
2010,06,16,09,21,11.90
2010,06,16,09,22,12.00
2010,06,16,09,23,12.00
2010,06,16,09,24,12.10
2010,06,16,09,25,12.10
2010,06,16,09,26,12.10
2010,06,16,09,27,12.20
2010,06,16,09,28,12.20
2010,06,16,09,29,12.30
2010,06,16,09,30,12.30
2010,06,16,09,31,12.40
2010,06,16,09,32,12.50
2010,06,16,09,33,12.60
2010,06,16,09,34,12.60
2010,06,16,09,35,12.70
2010,06,16,09,36,12.70
2010,06,16,09,37,12.80
2010,06,16,09,38,12.80
2010,06,16,09,39,12.90
2010,06,16,09,40,12.90
2010,06,16,09,41,13.00
2010,06,16,09,42,13.10
2010,06,16,09,43,13.10
2010,06,16,09,44,13.20
2010,06,16,09,45,13.20
2010,06,16,09,46,13.30
2010,06,16,09,47,13.30
2010,06,16,09,48,13.40
2010,06,16,09,49,13.30
2010,06,16,09,50,13.30
2010,06,16,09,51,13.30
2010,06,16,09,52,13.30
2010,06,16,09,53,13.30
2010,06,16,09,54,13.40
2010,06,16,09,55,13.40
2010,06,16,09,56,13.50
2010,06,16,09,57,13.60
2010,06,16,09,58,13.60
2010,06,16,09,59,13.70
2010,06,16,10,00,13.70
2010,06,16,10,01,13.60
2010,06,16,10,02,13.60
2010,06,16,10,03,13.60
2010,06,16,10,04,13.70
2010,06,16,10,05,13.70
2010,06,16,10,06,13.70
2010,06,16,10,07,13.70
2010,06,16,10,08,13.70
2010,06,16,10,09,13.70
2010,06,16,10,10,13.70
2010,06,16,10,11,13.70
2010,06,16,10,12,13.70
2010,06,16,10,13,13.60
2010,06,16,10,14,13.60
2010,06,16,10,15,13.70
2010,06,16,10,16,13.70
2010,06,16,10,17,13.70
2010,06,16,10,18,13.70
2010,06,16,10,19,13.70
2010,06,16,10,20,13.80
2010,06,16,10,21,13.80
2010,06,16,10,22,13.90
2010,06,16,10,23,13.90
2010,06,16,10,24,14.00
2010,06,16,10,25,14.00
2010,06,16,10,26,14.00
2010,06,16,10,27,13.90
2010,06,16,10,28,13.90
2010,06,16,10,29,13.80
2010,06,16,10,30,13.70
2010,06,16,10,31,13.70
2010,06,16,10,32,13.70
2010,06,16,10,33,13.70
2010,06,16,10,34,13.70
2010,06,16,10,35,13.70
2010,06,16,10,36,13.60
2010,06,16,10,37,13.60
2010,06,16,10,38,13.70
2010,06,16,10,39,13.70
2010,06,16,10,40,13.70
2010,06,16,10,41,13.70
2010,06,16,10,42,13.70
2010,06,16,10,43,13.70
2010,06,16,10,44,13.70
2010,06,16,10,45,13.70
2010,06,16,10,46,13.70
2010,06,16,10,47,13.80
2010,06,16,10,48,13.90
2010,06,16,10,49,14.00
2010,06,16,10,50,14.10
2010,06,16,10,51,14.30
2010,06,16,10,52,14.30
2010,06,16,10,53,14.40
2010,06,16,10,54,14.60
2010,06,16,10,55,14.70
2010,06,16,10,56,14.90
2010,06,16,10,57,15.00
2010,06,16,10,58,15.00
2010,06,16,10,59,15.20
2010,06,16,11,00,15.30
2010,06,16,11,01,15.40
2010,06,16,11,02,15.50
2010,06,16,11,03,15.50
2010,06,16,11,04,15.50
2010,06,16,11,05,15.50
2010,06,16,11,06,15.60
2010,06,16,11,07,15.60
2010,06,16,11,08,15.60
2010,06,16,11,09,15.70
2010,06,16,11,10,15.70
2010,06,16,11,11,15.70
2010,06,16,11,12,15.70
2010,06,16,11,13,15.60
2010,06,16,11,14,15.60
2010,06,16,11,15,15.40
2010,06,16,11,16,15.40
2010,06,16,11,17,15.30
2010,06,16,11,18,15.20
2010,06,16,11,19,15.10
2010,06,16,11,20,15.00
2010,06,16,11,21,15.00
2010,06,16,11,22,15.00
2010,06,16,11,23,15.00
2010,06,16,11,24,15.00
2010,06,16,11,25,15.00
2010,06,16,11,26,15.00
2010,06,16,11,27,15.00
2010,06,16,11,28,14.90
2010,06,16,11,29,14.90
2010,06,16,11,30,14.90
2010,06,16,11,31,15.00
2010,06,16,11,32,15.00
2010,06,16,11,33,15.00
2010,06,16,11,34,15.00
2010,06,16,11,35,15.00
2010,06,16,11,36,15.00
2010,06,16,11,37,14.90
2010,06,16,11,38,14.90
2010,06,16,11,39,14.80
2010,06,16,11,40,14.80
2010,06,16,11,41,14.70
2010,06,16,11,42,14.60
2010,06,16,11,43,14.40
2010,06,16,11,44,14.30
2010,06,16,11,45,14.30
2010,06,16,11,46,14.20
2010,06,16,11,47,14.20
2010,06,16,11,48,14.10
2010,06,16,11,49,14.10
2010,06,16,11,50,14.00
2010,06,16,11,51,14.00
2010,06,16,11,52,13.90
2010,06,16,11,53,13.90
2010,06,16,11,54,13.90
2010,06,16,11,55,13.90
2010,06,16,11,56,13.90
2010,06,16,11,57,13.90
2010,06,16,11,58,13.90
2010,06,16,11,59,13.90
2010,06,16,12,00,13.90
2010,06,16,12,01,13.90
2010,06,16,12,02,13.80
2010,06,16,12,03,13.70
2010,06,16,12,04,13.60
2010,06,16,12,05,13.50
2010,06,16,12,06,13.40
2010,06,16,12,07,13.30
2010,06,16,12,08,13.30
2010,06,16,12,09,13.30
2010,06,16,12,10,13.30
2010,06,16,12,11,13.30
2010,06,16,12,12,13.30
2010,06,16,12,13,13.40
2010,06,16,12,14,13.40
2010,06,16,12,15,13.40
2010,06,16,12,16,13.50
2010,06,16,12,17,13.60
2010,06,16,12,18,13.60
2010,06,16,12,19,13.60
2010,06,16,12,20,13.60
2010,06,16,12,21,13.70
2010,06,16,12,22,13.70
2010,06,16,12,23,13.80
2010,06,16,12,24,13.90
2010,06,16,12,25,13.90
2010,06,16,12,26,13.90
2010,06,16,12,27,14.00
2010,06,16,12,28,14.10
2010,06,16,12,29,14.20
2010,06,16,12,30,14.30
2010,06,16,12,31,14.30
2010,06,16,12,32,14.30
2010,06,16,12,33,14.30
2010,06,16,12,34,14.30
2010,06,16,12,35,14.30
2010,06,16,12,36,14.20
2010,06,16,12,37,14.20
2010,06,16,12,38,14.20
2010,06,16,12,39,14.20
2010,06,16,12,40,14.20
2010,06,16,12,41,14.20
2010,06,16,12,42,14.30
2010,06,16,12,43,14.40
2010,06,16,12,44,14.50
2010,06,16,12,45,14.60
2010,06,16,12,46,14.70
2010,06,16,12,47,14.80
2010,06,16,12,48,14.90
2010,06,16,12,49,15.00
2010,06,16,12,50,15.00
2010,06,16,12,51,15.00
2010,06,16,12,52,15.00
2010,06,16,12,53,15.00
2010,06,16,12,54,15.00
2010,06,16,12,55,14.80
2010,06,16,12,56,14.70
2010,06,16,12,57,14.70
2010,06,16,12,58,14.60
2010,06,16,12,59,14.60
2010,06,16,13,00,14.50
2010,06,16,13,01,14.50
2010,06,16,13,02,14.60
2010,06,16,13,03,14.50
2010,06,16,13,04,14.40
2010,06,16,13,05,14.30
2010,06,16,13,06,14.20
2010,06,16,13,07,14.20
2010,06,16,13,08,14.10
2010,06,16,13,09,14.00
2010,06,16,13,10,14.00
2010,06,16,13,11,14.00
2010,06,16,13,12,14.00
2010,06,16,13,13,13.90
2010,06,16,13,14,13.90
2010,06,16,13,15,13.90
2010,06,16,13,16,13.90
2010,06,16,13,17,13.90
2010,06,16,13,18,14.00
2010,06,16,13,19,14.10
2010,06,16,13,20,14.20
2010,06,16,13,21,14.30
2010,06,16,13,22,14.40
2010,06,16,13,23,14.40
2010,06,16,13,24,14.40
2010,06,16,13,25,14.40
2010,06,16,13,26,14.50
2010,06,16,13,27,14.40
2010,06,16,13,28,14.40
2010,06,16,13,29,14.40
2010,06,16,13,30,14.40
2010,06,16,13,31,14.40
2010,06,16,13,32,14.40
2010,06,16,13,33,14.40
2010,06,16,13,34,14.40
2010,06,16,13,35,14.40
2010,06,16,13,36,14.40
2010,06,16,13,37,14.50
2010,06,16,13,38,14.60
2010,06,16,13,39,14.60
2010,06,16,13,40,14.60
2010,06,16,13,41,14.60
2010,06,16,13,42,14.50
2010,06,16,13,43,14.40
2010,06,16,13,44,14.40
2010,06,16,13,45,14.50
2010,06,16,13,46,14.50
2010,06,16,13,47,14.60
2010,06,16,13,48,14.60
2010,06,16,13,49,14.70
2010,06,16,13,50,14.70
2010,06,16,13,51,14.70
2010,06,16,13,52,14.80
2010,06,16,13,53,14.70
2010,06,16,13,54,14.70
2010,06,16,13,55,14.70
2010,06,16,13,56,14.60
2010,06,16,13,57,14.60
2010,06,16,13,58,14.50
2010,06,16,13,59,14.50
2010,06,16,14,00,14.40
2010,06,16,14,01,14.50
2010,06,16,14,02,14.50
2010,06,16,14,03,14.50
2010,06,16,14,04,14.50
2010,06,16,14,05,14.60
2010,06,16,14,06,14.60
2010,06,16,14,07,14.60
2010,06,16,14,08,14.50
2010,06,16,14,09,14.40
2010,06,16,14,10,14.30
2010,06,16,14,11,14.30
2010,06,16,14,12,14.40
2010,06,16,14,13,14.40
2010,06,16,14,14,14.50
2010,06,16,14,15,14.60
2010,06,16,14,16,14.60
2010,06,16,14,17,14.70
2010,06,16,14,18,14.80
2010,06,16,14,19,14.70
2010,06,16,14,20,14.70
2010,06,16,14,21,14.70
2010,06,16,14,22,14.80
2010,06,16,14,23,14.80
2010,06,16,14,24,14.80
2010,06,16,14,25,14.80
2010,06,16,14,26,14.70
2010,06,16,14,27,14.80
2010,06,16,14,28,14.80
2010,06,16,14,29,15.00
2010,06,16,14,30,15.00
2010,06,16,14,31,15.00
2010,06,16,14,32,15.00
2010,06,16,14,33,15.00
2010,06,16,14,34,15.00
2010,06,16,14,35,15.10
2010,06,16,14,36,15.10
2010,06,16,14,37,15.00
2010,06,16,14,38,15.00
2010,06,16,14,39,15.10
2010,06,16,14,40,15.10
2010,06,16,14,41,15.10
2010,06,16,14,42,15.20
2010,06,16,14,43,15.20
2010,06,16,14,44,15.30
2010,06,16,14,45,15.40
2010,06,16,14,46,15.50
2010,06,16,14,47,15.50
2010,06,16,14,48,15.50
2010,06,16,14,49,15.50
2010,06,16,14,50,15.40
2010,06,16,14,51,15.30
2010,06,16,14,52,15.40
2010,06,16,14,53,15.40
2010,06,16,14,54,15.40
2010,06,16,14,55,15.50
2010,06,16,14,56,15.60
2010,06,16,14,57,15.60
2010,06,16,14,58,15.70
2010,06,16,14,59,15.70
2010,06,16,15,00,15.70
2010,06,16,15,01,15.70
2010,06,16,15,02,15.70
2010,06,16,15,03,15.80
2010,06,16,15,04,15.90
2010,06,16,15,05,15.90
2010,06,16,15,06,15.80
2010,06,16,15,07,15.90
2010,06,16,15,08,15.90
2010,06,16,15,09,15.80
2010,06,16,15,10,15.80
2010,06,16,15,11,15.90
2010,06,16,15,12,16.00
2010,06,16,15,13,16.00
2010,06,16,15,14,16.00
2010,06,16,15,15,15.90
2010,06,16,15,16,15.90
2010,06,16,15,17,16.00
2010,06,16,15,18,16.00
2010,06,16,15,19,16.00
2010,06,16,15,20,16.00
2010,06,16,15,21,16.00
2010,06,16,15,22,16.10
2010,06,16,15,23,16.10
2010,06,16,15,24,16.20
2010,06,16,15,25,16.20
2010,06,16,15,26,16.20
2010,06,16,15,27,16.10
2010,06,16,15,28,16.10
2010,06,16,15,29,16.10
2010,06,16,15,30,16.10
2010,06,16,15,31,15.90
2010,06,16,15,32,15.80
2010,06,16,15,33,15.70
2010,06,16,15,34,15.70
2010,06,16,15,35,15.70
2010,06,16,15,36,15.60
2010,06,16,15,37,15.60
2010,06,16,15,38,15.60
2010,06,16,15,39,15.50
2010,06,16,15,40,15.60
2010,06,16,15,41,15.60
2010,06,16,15,42,15.60
2010,06,16,15,43,15.60
2010,06,16,15,44,15.70
2010,06,16,15,45,15.70
2010,06,16,15,46,15.70
2010,06,16,15,47,15.80
2010,06,16,15,48,15.80
2010,06,16,15,49,15.70
2010,06,16,15,50,15.60
2010,06,16,15,51,15.60
2010,06,16,15,52,15.60
2010,06,16,15,53,15.60
2010,06,16,15,54,15.60
2010,06,16,15,55,15.60
2010,06,16,15,56,15.60
2010,06,16,15,57,15.60
2010,06,16,15,58,15.60
2010,06,16,15,59,15.40
2010,06,16,16,00,15.30
2010,06,16,16,01,15.20
2010,06,16,16,02,15.20
2010,06,16,16,03,15.20
2010,06,16,16,04,15.20
2010,06,16,16,05,15.20
2010,06,16,16,06,15.30
2010,06,16,16,07,15.40
2010,06,16,16,08,15.50
2010,06,16,16,09,15.60
2010,06,16,16,10,15.60
2010,06,16,16,11,15.50
2010,06,16,16,12,15.40
2010,06,16,16,13,15.40
2010,06,16,16,14,15.30
2010,06,16,16,15,15.30
2010,06,16,16,16,15.20
2010,06,16,16,17,15.10
2010,06,16,16,18,15.20
2010,06,16,16,19,15.20
2010,06,16,16,20,15.30
2010,06,16,16,21,15.30
2010,06,16,16,22,15.40
2010,06,16,16,23,15.50
2010,06,16,16,24,15.40
2010,06,16,16,25,15.40
2010,06,16,16,26,15.30
2010,06,16,16,27,15.30
2010,06,16,16,28,15.30
2010,06,16,16,29,15.20
2010,06,16,16,30,15.20
2010,06,16,16,31,15.20
2010,06,16,16,32,15.30
2010,06,16,16,33,15.40
2010,06,16,16,34,15.40
2010,06,16,16,35,15.40
2010,06,16,16,36,15.20
2010,06,16,16,37,15.10
2010,06,16,16,38,15.00
2010,06,16,16,39,15.00
2010,06,16,16,40,14.90
2010,06,16,16,41,14.80
2010,06,16,16,42,14.80
2010,06,16,16,43,14.80
2010,06,16,16,44,14.80
2010,06,16,16,45,14.90
2010,06,16,16,46,14.90
2010,06,16,16,47,14.80
2010,06,16,16,48,14.70
2010,06,16,16,49,14.80
2010,06,16,16,50,14.70
2010,06,16,16,51,14.70
2010,06,16,16,52,14.70
2010,06,16,16,53,14.60
2010,06,16,16,54,14.60
2010,06,16,16,55,14.70
2010,06,16,16,56,14.80
2010,06,16,16,57,15.00
2010,06,16,16,58,15.00
2010,06,16,16,59,15.00
2010,06,16,17,00,15.00
2010,06,16,17,01,15.00
2010,06,16,17,02,15.00
2010,06,16,17,03,14.90
2010,06,16,17,04,14.90
2010,06,16,17,05,14.90
2010,06,16,17,06,15.00
2010,06,16,17,07,15.00
2010,06,16,17,08,15.00
2010,06,16,17,09,15.00
2010,06,16,17,10,15.00
2010,06,16,17,11,15.00
2010,06,16,17,12,15.00
2010,06,16,17,13,15.00
2010,06,16,17,14,14.80
2010,06,16,17,15,14.70
2010,06,16,17,16,14.60
2010,06,16,17,17,14.50
2010,06,16,17,18,14.50
2010,06,16,17,19,14.40
2010,06,16,17,20,14.40
2010,06,16,17,21,14.40
2010,06,16,17,22,14.40
2010,06,16,17,23,14.40
2010,06,16,17,24,14.40
2010,06,16,17,25,14.50
2010,06,16,17,26,14.60
2010,06,16,17,27,14.60
2010,06,16,17,28,14.50
2010,06,16,17,29,14.60
2010,06,16,17,30,14.60
2010,06,16,17,31,14.60
2010,06,16,17,32,14.70
2010,06,16,17,33,14.70
2010,06,16,17,34,14.60
2010,06,16,17,35,14.60
2010,06,16,17,36,14.50
2010,06,16,17,37,14.50